Orbital Elements
Epoch 2014 Sept. 20.0 TT = JDT 2456920.5
T 2014 Sept. 28.22384 TT MPCW
q 0.6254862 (2000.0) P Q
z +0.0021372 Peri. 314.57524 +0.74284344 -0.52160697
Node 278.61564 -0.42774998 -0.85201378
e 0.9986632 Incl. 154.88452 -0.51498892 -0.04470668
From 1465 observations 2013 Nov. 12-2015 Apr. 15, mean residual 0".5.
Nongravitational parameters A1 = +0.48, A2 = -0.0404.
|